Terminal Aerodrome Forecast
Issued by NWS

Current Version | Previous Version | Text Only | Print | Product List | Glossary On
Versions: 1 2 3 4 5 6 7 8 9 10 11 12 13
000
FTUS41 KPBZ 041139
TAFAGC
TAF
KAGC 041139Z 0412/0512 17005KT 6SM HZ SCT250
     FM041300 17005KT P6SM SCT250
     FM041600 21011G21KT P6SM SCT060 BKN250
     FM050100 21008KT P6SM BKN080
     FM050800 22009KT P6SM -SHRA OVC025
     FM051000 24010KT 5SM -SHRA BR OVC015=

USA.gov is the U.S. government's official web portal to all federal, state and local government web resources and services.